Wind_Speed
14 15 15 15 15 15 15 15 15 16 15 15 15 15 15 14 13 13 13 12 10 8 7 7 8 9 11 14 17 20 22 25 28 31 35 37 39 42 44 46 47 48 47
14 14 15 15 15 15 15 15 15 15 15 15 15 14 14 14 14 14 13 13 12 10 9 8 8 9 10 12 14 17 20 22 25 28 32 35 38 40 42 44 46 49 50
14 15 15 15 15 15 15 15 15 14 14 14 14 14 14 14 14 14 14 13 13 12 10 10 9 10 10 11 12 14 17 20 23 26 30 33 36 38 40 42 45 47 49
14 15 15 15 15 15 15 15 15 15 15 14 14 14 14 13 13 13 13 13 13 13 12 11 11 10 11 11 12 13 14 17 20 23 26 29 32 34 36 39 42 45 47
14 15 15 16 16 16 15 15 15 15 15 15 15 14 14 14 13 13 14 14 14 13 13 12 12 12 12 12 12 12 13 14 16 18 21 24 27 29 31 34 38 41 44
14 15 16 17 17 17 17 17 17 16 16 16 16 15 15 14 14 14 14 14 14 14 14 13 13 13 13 13 13 14 14 14 15 17 18 20 23 25 27 29 32 36 39
14 15 17 17 18 18 19 19 19 18 18 17 17 16 16 15 15 14 14 15 15 15 15 14 14 14 14 14 14 15 15 15 15 16 17 19 20 22 23 25 27 30 33
15 16 17 18 19 20 20 20 20 20 19 19 18 17 17 16 16 15 15 15 15 15 15 15 15 15 15 15 15 15 15 15 15 16 17 18 19 19 21 22 24 25 28
15 16 18 19 20 21 21 22 21 21 21 20 19 18 17 17 16 16 16 16 16 16 16 16 16 16 16 16 16 16 16 16 16 16 17 17 18 19 20 21 22 23 25
16 17 18 19 21 22 22 23 23 22 22 21 20 19 18 18 18 17 17 17 17 17 17 17 17 17 17 17 17 17 17 17 17 17 17 17 18 19 20 21 21 22 23
16 17 19 20 21 22 23 23 23 23 23 22 21 20 19 19 19 18 18 18 18 18 18 18 18 18 18 18 18 18 18 18 18 19 18 18 18 18 19 20 21 22 23
17 18 19 21 22 23 24 24 24 24 24 23 22 21 20 20 19 19 19 19 19 19 19 19 19 18 18 18 18 19 19 19 19 19 19 19 19 19 19 19 20 21 22
19 20 21 22 23 24 25 25 25 25 24 24 23 22 22 22 21 21 21 21 20 20 20 20 20 19 19 20 20 20 20 20 20 20 20 20 20 20 20 20 21 21 22
20 21 22 23 24 25 25 26 26 26 25 25 24 24 24 24 23 23 22 22 22 22 21 21 21 21 21 21 22 22 22 22 22 22 22 21 21 21 22 22 22 21 22
22 23 23 24 25 26 26 27 27 27 27 26 26 26 25 25 25 25 25 24 24 23 23 23 23 23 23 23 24 24 24 24 24 24 24 24 23 23 23 23 23 23 23
24 25 25 26 27 27 28 28 28 28 28 28 27 27 27 27 27 27 26 26 26 25 25 25 25 25 26 26 26 26 26 26 26 26 26 26 26 26 25 25 25 25 25
26 27 27 28 29 29 30 31 31 30 30 30 29 29 28 28 28 28 28 28 28 27 27 27 27 27 28 28 28 28 29 29 29 29 29 29 29 28 28 28 28 28 28
28 29 29 30 31 31 32 33 34 34 33 33 32 31 30 29 29 29 29 29 29 29 29 29 29 30 30 30 30 31 31 31 32 32 32 32 32 32 32 32 32 31 31
31 31 32 32 33 34 34 35 36 36 36 36 35 34 33 32 31 31 30 30 30 31 31 31 32 32 32 33 33 33 34 34 35 35 35 36 36 36 36 35 35 35 34
33 34 34 35 35 36 37 37 37 38 38 37 37 36 35 34 33 33 32 32 32 33 33 34 34 35 35 36 36 36 37 37 38 38 39 39 39 39 39 39 39 39 39
36 36 37 37 38 39 39 40 40 40 39 39 38 37 36 36 35 35 34 34 34 35 36 36 37 38 38 39 39 40 41 41 41 42 42 42 43 43 43 44 44 43 43
38 39 39 40 40 41 42 42 42 41 41 40 39 38 37 36 36 36 36 36 37 37 38 39 40 41 42 42 43 44 44 45 46 46 46 47 47 47 48 48 48 48 48
41 41 42 42 43 44 44 44 43 42 41 41 40 39 38 37 37 37 38 38 39 40 41 42 43 44 45 46 47 48 48 49 50 51 51 52 52 53 53 53 53 53 53
44 44 44 45 46 46 46 45 44 43 42 42 41 40 39 39 39 39 40 41 41 43 44 45 46 47 48 49 51 52 53 54 54 55 56 56 57 57 58 58 58 58 58
46 46 47 47 48 48 47 45 45 44 44 43 42 41 41 40 41 41 42 43 44 45 47 48 49 50 52 53 55 56 58 59 60 61 62 62 62 62 62 63 63 62 62
49 49 50 50 49 49 48 47 46 45 44 43 43 42 42 42 43 44 45 46 47 48 49 51 52 54 55 57 59 61 62 64 66 67 68 68 68 68 68 67 67 67 67
Wind_Direction
2 3 4 5 6 6 6 6 8 9 12 13 14 15 15 15 14 12 11 9 1 350 333 308 290 281 272 264 259 256 255 252 251 251 251 249 247 245 243 242 242 242 242
1 2 2 3 3 4 4 4 5 6 7 9 9 8 9 10 10 9 8 6 2 357 347 331 314 300 288 279 272 266 262 259 256 256 254 252 250 249 247 245 244 243 243
360 0 0 1 1 1 1 1 1 1 1 2 2 1 1 2 3 3 4 3 2 358 353 345 332 318 307 295 287 278 272 267 263 261 259 255 253 251 250 249 248 246 245
357 357 358 358 357 356 355 356 356 355 353 352 352 352 353 353 354 355 355 356 357 357 353 347 341 333 322 311 301 293 285 278 271 267 264 260 257 254 253 251 250 249 248
353 354 355 355 354 352 349 348 347 346 344 343 342 342 342 343 344 346 347 347 348 348 347 344 340 337 333 326 318 309 300 292 283 276 271 266 262 259 258 256 254 252 251
347 349 351 351 350 349 347 345 342 340 337 335 334 334 333 333 333 335 337 338 339 339 338 337 336 334 331 327 323 318 312 305 296 288 281 274 268 265 263 262 259 256 254
342 344 346 347 347 346 344 342 339 336 332 329 327 326 325 324 325 326 327 329 330 331 332 331 330 328 328 327 323 319 317 311 304 297 290 283 275 271 268 266 264 262 258
335 338 341 342 343 343 341 339 337 334 331 326 323 321 320 319 318 319 320 321 322 323 325 326 326 325 323 323 322 319 317 313 308 302 297 290 282 276 273 270 268 264 260
328 333 336 339 340 340 339 338 337 335 332 328 323 319 316 315 314 313 313 313 315 316 318 319 321 321 319 317 318 317 316 314 311 307 301 298 291 283 279 275 273 268 264
323 328 332 334 336 338 338 338 336 335 333 330 326 320 316 313 312 311 310 310 310 311 312 313 315 316 317 316 315 314 313 312 311 310 305 301 298 292 287 281 277 273 268
317 322 326 330 333 335 336 336 335 333 331 329 326 322 317 313 311 311 310 309 309 308 309 310 311 312 313 313 313 312 312 312 310 308 307 305 301 297 292 287 282 277 273
310 316 321 326 329 331 332 333 332 330 328 326 323 321 317 314 311 310 309 309 308 307 307 308 309 309 309 310 310 310 310 309 310 308 305 303 302 299 296 293 287 282 278
304 310 315 320 324 327 329 329 330 328 326 324 321 318 316 314 311 309 308 307 307 306 306 305 305 305 306 307 307 308 307 306 306 305 305 302 300 298 296 295 293 288 284
300 306 310 315 319 322 325 326 326 326 325 323 320 316 314 312 311 309 306 305 304 303 303 302 302 302 302 303 304 304 304 304 304 302 302 301 299 297 295 294 292 292 288
296 301 306 310 314 317 320 322 323 323 322 320 317 315 312 310 308 306 305 303 302 300 299 299 300 300 300 300 300 300 301 301 301 300 300 298 298 297 295 294 292 290 289
292 297 302 306 310 313 315 316 318 318 318 316 314 311 308 306 304 303 302 301 300 298 297 297 297 298 298 298 299 298 298 298 297 296 296 296 295 295 294 292 290 289 287
289 294 299 303 306 309 311 313 314 314 314 312 310 308 305 302 301 299 299 298 297 296 296 295 295 296 296 296 296 296 296 296 295 294 294 293 292 292 291 290 289 287 286
287 291 296 299 303 306 308 310 312 312 311 310 308 306 303 301 298 297 296 295 295 294 294 294 294 294 294 294 294 294 294 294 293 293 292 291 291 289 288 287 287 286 285
285 289 293 297 300 303 305 308 309 309 309 308 306 305 303 300 298 296 295 294 293 293 293 293 292 292 293 293 293 293 293 292 292 291 291 290 289 288 287 286 285 284 283
284 288 292 295 298 300 303 305 306 306 306 305 304 302 300 298 296 295 293 292 292 292 293 293 292 292 292 292 292 292 291 291 290 290 289 289 288 287 286 285 283 282 281
283 287 290 293 296 299 301 303 304 304 303 303 301 300 298 296 295 294 293 293 293 293 293 293 292 292 292 292 292 292 291 290 289 288 288 287 286 285 284 283 282 281 279
283 286 289 292 295 297 300 301 302 302 302 301 300 298 296 294 293 292 292 292 293 293 293 293 293 293 292 292 292 292 291 290 289 288 287 286 285 284 283 282 281 279 278
282 285 288 291 294 296 298 299 300 300 300 300 298 296 294 293 291 291 291 291 292 293 294 294 294 293 293 293 292 292 292 291 290 289 288 287 286 284 283 281 280 278 277
281 284 287 290 292 295 297 297 298 298 298 298 296 294 293 292 291 291 291 292 293 294 294 294 294 294 294 293 293 293 292 291 290 289 288 287 286 285 283 281 279 277 276
280 283 286 288 291 293 294 295 296 296 296 296 294 293 292 292 292 292 292 293 294 295 295 295 295 295 295 295 295 294 293 292 291 290 289 288 286 285 283 281 279 276 274
280 282 285 287 289 291 292 293 293 294 294 293 292 291 291 292 292 293 294 294 295 296 297 297 297 297 297 297 297 296 295 294 293 292 290 289 287 285 283 281 279 276 273
Height
5814 5812 5809 5806 5804 5801 5798 5795 5793 5790 5787 5784 5782 5779 5777 5774 5772 5770 5767 5765 5763 5762 5760 5760 5760 5761 5761 5762 5763 5764 5765 5767 5768 5769 5771 5773 5776 5779 5783 5786 5789 5793 5796
5813 5811 5809 5806 5803 5801 5798 5795 5793 5790 5787 5785 5782 5779 5777 5774 5772 5769 5767 5765 5762 5760 5758 5758 5757 5757 5757 5757 5757 5757 5758 5759 5760 5761 5762 5764 5766 5768 5771 5774 5778 5781 5784
5813 5810 5808 5805 5803 5800 5798 5795 5792 5790 5787 5785 5782 5779 5777 5774 5772 5769 5766 5764 5761 5759 5757 5756 5754 5753 5753 5752 5752 5751 5751 5752 5752 5753 5753 5754 5755 5757 5760 5763 5765 5768 5772
5812 5809 5807 5805 5802 5799 5797 5794 5792 5789 5787 5784 5781 5779 5776 5774 5771 5769 5766 5763 5761 5758 5756 5754 5752 5751 5749 5748 5747 5746 5745 5745 5744 5744 5744 5744 5745 5747 5749 5751 5754 5756 5760
5810 5808 5806 5803 5801 5798 5796 5793 5790 5788 5785 5783 5780 5777 5775 5772 5770 5767 5765 5762 5760 5757 5754 5752 5750 5748 5746 5744 5743 5742 5740 5739 5738 5737 5737 5736 5737 5738 5739 5740 5742 5744 5747
5808 5806 5804 5801 5799 5796 5793 5791 5788 5785 5783 5780 5778 5775 5773 5770 5768 5765 5763 5760 5758 5755 5752 5750 5747 5745 5743 5741 5739 5737 5736 5734 5732 5731 5730 5729 5729 5729 5730 5731 5732 5734 5737
5806 5804 5802 5799 5796 5794 5791 5788 5785 5783 5780 5777 5775 5772 5770 5767 5765 5762 5760 5757 5755 5752 5750 5747 5745 5742 5740 5738 5736 5734 5732 5729 5728 5726 5725 5723 5723 5723 5723 5723 5723 5724 5725
5803 5801 5799 5796 5794 5791 5788 5785 5782 5779 5776 5774 5771 5769 5766 5764 5761 5759 5757 5754 5752 5749 5747 5744 5742 5739 5737 5734 5732 5730 5728 5725 5724 5721 5720 5718 5717 5716 5716 5716 5715 5716 5717
5800 5798 5796 5793 5791 5788 5785 5782 5778 5775 5772 5769 5767 5764 5762 5760 5758 5755 5753 5751 5748 5746 5743 5741 5738 5736 5733 5731 5729 5726 5724 5722 5719 5717 5715 5713 5712 5711 5710 5709 5709 5709 5709
5797 5795 5793 5790 5787 5784 5781 5778 5775 5771 5768 5765 5762 5760 5758 5755 5753 5751 5749 5747 5744 5742 5740 5737 5735 5732 5730 5727 5725 5722 5720 5718 5715 5713 5711 5709 5707 5705 5704 5703 5702 5702 5702
5793 5791 5789 5786 5784 5781 5778 5774 5771 5768 5764 5761 5759 5756 5753 5751 5749 5746 5744 5742 5740 5738 5735 5733 5731 5728 5726 5723 5721 5718 5716 5713 5711 5709 5706 5704 5702 5700 5699 5697 5696 5696 5695
5789 5787 5785 5782 5779 5777 5773 5770 5767 5764 5760 5757 5754 5751 5749 5746 5744 5742 5740 5737 5735 5733 5731 5728 5726 5724 5721 5719 5716 5714 5711 5709 5706 5704 5701 5699 5697 5695 5693 5692 5690 5689 5689
5783 5781 5779 5777 5775 5772 5769 5766 5762 5759 5756 5752 5749 5747 5744 5741 5739 5737 5734 5732 5730 5728 5725 5723 5721 5718 5716 5714 5711 5709 5706 5704 5701 5699 5696 5694 5692 5690 5688 5686 5684 5683 5682
5777 5776 5774 5772 5769 5767 5764 5761 5758 5754 5751 5748 5744 5741 5739 5736 5733 5731 5729 5726 5724 5722 5720 5717 5715 5713 5710 5708 5705 5703 5700 5698 5696 5693 5691 5688 5686 5684 5682 5680 5678 5677 5676
5771 5769 5768 5766 5763 5761 5758 5755 5752 5749 5745 5742 5739 5736 5733 5730 5727 5725 5722 5720 5717 5715 5713 5711 5708 5706 5704 5702 5699 5696 5694 5692 5689 5687 5685 5682 5680 5678 5676 5674 5672 5670 5669
5764 5763 5761 5759 5757 5754 5751 5749 5746 5743 5739 5736 5732 5729 5726 5723 5720 5718 5715 5713 5710 5708 5706 5703 5701 5699 5697 5694 5692 5689 5687 5684 5682 5680 5678 5675 5673 5671 5669 5666 5665 5663 5661
5756 5755 5753 5751 5749 5747 5744 5741 5738 5736 5732 5729 5725 5722 5719 5716 5713 5710 5708 5705 5703 5700 5698 5696 5693 5691 5689 5686 5684 5681 5679 5676 5674 5672 5669 5667 5665 5663 5661 5659 5657 5655 5653
5748 5747 5745 5743 5741 5739 5736 5733 5730 5726 5723 5720 5717 5714 5711 5708 5705 5702 5699 5697 5694 5692 5690 5687 5685 5682 5680 5677 5675 5672 5670 5667 5665 5663 5660 5658 5656 5654 5652 5650 5648 5646 5644
5739 5738 5737 5735 5732 5730 5727 5724 5721 5717 5714 5710 5707 5704 5701 5698 5695 5693 5690 5688 5685 5683 5680 5678 5675 5673 5670 5668 5665 5663 5660 5657 5655 5652 5650 5647 5645 5643 5641 5639 5637 5635 5634
5730 5729 5727 5725 5723 5721 5718 5715 5711 5708 5704 5700 5697 5694 5690 5688 5685 5682 5680 5677 5675 5673 5670 5668 5665 5662 5660 5657 5654 5651 5649 5646 5643 5641 5638 5635 5633 5631 5629 5627 5625 5623 5622
5720 5718 5717 5715 5713 5710 5707 5704 5701 5697 5694 5690 5686 5683 5680 5677 5674 5672 5669 5667 5664 5662 5659 5656 5653 5651 5648 5645 5642 5639 5636 5633 5630 5627 5625 5622 5619 5617 5615 5613 5611 5609 5608
5708 5707 5706 5704 5701 5699 5696 5693 5689 5686 5682 5679 5675 5672 5669 5666 5663 5661 5658 5656 5653 5650 5647 5644 5641 5638 5635 5632 5629 5625 5622 5619 5615 5612 5609 5606 5604 5601 5599 5596 5595 5593 5592
5697 5695 5694 5692 5689 5687 5684 5681 5677 5674 5671 5667 5664 5661 5658 5655 5652 5650 5647 5644 5641 5638 5635 5631 5628 5625 5621 5617 5613 5610 5606 5602 5599 5595 5592 5589 5586 5583 5580 5578 5576 5574 5573
5684 5683 5681 5679 5677 5674 5671 5668 5665 5662 5659 5655 5652 5649 5646 5643 5640 5638 5635 5632 5628 5625 5621 5618 5614 5610 5606 5601 5597 5593 5588 5584 5580 5576 5573 5570 5566 5563 5560 5557 5555 5553 5552
5671 5669 5668 5666 5664 5661 5658 5656 5653 5649 5646 5643 5640 5637 5634 5631 5628 5625 5622 5618 5615 5611 5607 5602 5598 5594 5589 5584 5579 5574 5569 5564 5559 5555 5551 5548 5544 5540 5537 5534 5532 5530 5529
5657 5656 5654 5652 5650 5648 5645 5642 5640 5637 5633 5630 5627 5624 5621 5618 5615 5612 5608 5604 5600 5596 5591 5587 5582 5576 5571 5566 5560 5554 5548 5542 5537 5531 5526 5522 5518 5514 5510 5507 5505 5503 5502